Home   Weather   Oberlin   Past weeks
Flag for USA

Past Weather in Oberlin, Ohio, USA — Yesterday and Last 2 Weeks

Now
30 °F

Clear.


Feels Like: 25 °F
Forecast: 54 / 31 °F
Wind: 5 mph from North

Location: Lorain County Regional Airport

Current Time: Mar 24, 2019 at 8:07:30 am

Latest Report: Mar 24, 2019 at 6:53 am


Visibility: 10 mi

Pressure: 30.23 "Hg

Humidity: 66%

Dew Point: 20 °F

Location of OberlinLocation

Past Weather in Oberlin — Graph

°F

Oberlin Temperature Yesterday

Maximum temperature yesterday: 44 °F (at 4:53 pm)
Minimum temperature yesterday: 28 °F (at 5:53 am)
Average temperature yesterday: 34 °F

High & Low Weather Summary for the Past Weeks

 TemperatureHumidityPressure
High70 °F (Mar 14, 4:53 pm)86% (Mar 21, 3:53 am)30.46 "Hg (Mar 21, 3:53 am)
Low20 °F (Mar 9, 5:53 am)32% (Mar 23, 2:53 pm)29.53 "Hg (Mar 14, 9:53 pm)
Average38 °F63%30.11 "Hg
* Reported Mar 9 5:53 am — Mar 24 6:53 am, Oberlin. Weather by CustomWeather, © 2019

Note: Actual official high and low records may vary slightly from our data, if they occured in-between our weather recording intervals... More about our weather records

Advertising

Oberlin Weather History for the Previous 24 Hours

Scroll right to see more
 ConditionsComfort  
Time TempWeatherWind HumidityBarometerVisibility
6:53 am
Sun, Mar 24
30 °FClear.5 mph66%30.23 "Hg10 mi
5:53 am29 °FClear.3 mph66%30.24 "Hg10 mi
4:53 am30 °FClear.5 mph61%30.24 "Hg10 mi
3:53 am30 °FClear.3 mph64%30.24 "Hg10 mi
2:53 am31 °FClear.3 mph61%30.25 "Hg10 mi
1:53 am30 °FClear.3 mph64%30.25 "Hg10 mi
12:53 am31 °FClear.3 mph64%30.27 "Hg10 mi
11:53 pm
Sat, Mar 23
31 °FClear.3 mph69%30.27 "Hg10 mi
10:53 pm33 °FClear.3 mph61%30.28 "Hg10 mi
9:53 pm34 °FClear.No wind61%30.29 "Hg10 mi
8:53 pm35 °FClear.6 mph56%30.30 "Hg10 mi
7:53 pm40 °FClear.N/A45%30.30 "Hg10 mi
6:53 pm44 °FSunny.10 mph40%30.29 "Hg10 mi
5:53 pm44 °FSunny.7 mph40%30.29 "Hg10 mi
4:53 pm44 °FSunny.10 mph41%30.29 "Hg10 mi
3:53 pm43 °FSunny.6 mph38%30.31 "Hg10 mi
2:53 pm41 °FSunny.9 mph32%30.32 "Hg10 mi
1:53 pm38 °FSunny.10 mph41%30.33 "Hg10 mi
12:53 pm36 °FSunny.9 mph46%30.33 "Hg10 mi
11:53 am33 °FSunny.8 mph54%30.34 "Hg10 mi
10:53 am32 °FSunny.9 mph56%30.33 "Hg10 mi
9:53 am31 °FSunny.10 mph59%30.32 "Hg10 mi
8:53 am30 °FSunny.14 mph59%30.29 "Hg10 mi
Weather by CustomWeather, © 2019

See weather overview